7 * 24
多渠道服务支持
STARLINK-37426(NORAD编号68813)是美国SpaceX公司星链(Starlink)星座的一颗低轨互联网卫星,隶属于星链第二代组网的一部分。星链项目旨在构建覆盖全球的低轨卫星互联网星座,该卫星运行于近地轨道,作为太空移动基站为全球用户提供高带宽互联网接入服务。作为SpaceX批量发射的星链卫星之一,它参与完善全球覆盖,提升星座通信容量,支持民用通信及潜在特殊场景应用,延续了星链低成本批量部署、持续组网推进的特点。
美国
(US)
| 数据来源 | 国际轨道数据 |
| 星历时间: | 2026-05-24T10:17:27+0800 1天前 查看轨道信息 |
| 半长轴: | 6708.413km |
| 偏心率: | 0.0018541 |
| 轨道倾角: | 97.284° |
| 近地点辐角 | 303.428° |
| 升交点赤经 | 350.699° |
| 平近点角 | 56.522° |
| 近地点: | 317.837km |
| 远地点: | 342.715km |
| 周期: | 91.136分钟 |
| 每日圈数: | 15.800585 |